PAKTES 1A (43529 NORAD) Tracking and Keplerian Element Data

This shows tracking and keplerian element data for the satellite.

Feedback or suggestion? Click here.




ElementValue
Catalog43529
NamePAKTES 1A
Epoch Orbit192
Epoch Day203.1253709
Epoch Year2018
RAAN273.454
Inclination98.0692
Eccentricity0.0001162
Argument of Perigee86.6221
Mean Anonmoly273.5119
Mean Motion14.76767007
Decay Rate4E-08
L11 43529U 18056A 18203.12537090 .00000004 00000-0 79587-5 0 9999
L22 43529 98.0692 273.4540 0001162 86.6221 273.5119 14.76767007 1924

Live tracking and technical data element details for PAKTES 1A (NORAD 43529). PAKTES 1A can be tracked NOW for your location showing map with azimuth and elevation plus other details from your city location.

Track the satellite on the map from your city or location and see movement details for azimuth, elevation, latitude, longitude, range, height, and movement on the map or in text.







IsCatalogInMostPopularTable: catalog: 43529, numindb: 6
Update: records affected: 1



GetName: 43529 PAKTES 1A

Hit Count: updated at: Mon, 23 Jul 2018 07:59:11 GMT